Location: ??????
(38.1303°N, 24.0039°E)
Time: 03:48:37
(UTC+00:00)

Cosmos 2369 Rocket - Pass Details

Date: 20 June 2021
Orbit: 827 x 854 km, 71.0° (Epoch: 25 July)

Event Time Altitude Azimuth Distance (km) Brightness Sun altitude
Rises 00:32:23 0° 323° (NW) 3,428 5.6 -21.6°
Reaches altitude 10° 00:35:18 10° 309° (NW) 2,486 4.7 -21.3°
Enters shadow 00:39:07 23° 268° (W) 1,751 3.5 -20.9°
